(285506) = 2000 EZ15 = 2006 TF93

Discovered at Kitt Peak on 2000-03-03 by Spacewatch.

Orbit

Orbit type: Main Belt

Note: WebGL enabled browser required.

epoch2023-09-13.0
epoch JD2460200.5
perihelion date2022-06-22.68654
perihelion JD2459753.18654
argument of perihelion (°)351.76892
ascending node (°)342.16677
inclination (°)3.80736
eccentricity0.0214151
perihelion distance (AU)2.4981169
Tisserand w.r.t. Jupiter3.4
ΔV w.r.t. Earth (km/sec)9.9
semimajor axis (AU)2.5527850
mean anomaly (°)108.09222
mean daily motion (°/day)0.24164760
aphelion distance (AU)2.607
period (years)4.08
P-vector [x]0.89839825
P-vector [y]-0.39906547
P-vector [z]-0.18337756
Q-vector [x]0.43871067
Q-vector [y]0.79612660
Q-vector [z]0.41679177
absolute magnitude17.38
phase slope0.15
uncertainty0
referenceMPEC 2024-B63
observations used262
oppositions14
arc length (days)8722
first opposition used2000
last opposition used2024
residual rms (arc-secs)0.81
perturbers coarse indicatorM-v
perturbers precise indicator003Ek
first observation date used2000-03-03.0
last observation date used2024-01-19.0
computer nameMPCLINUX
JD of orbit computation2456966.911190
perihelion JD uncertainty (days)8.7882E-04
argument of perihelion uncertainty (°)2.1051E-04
ascending node uncertainty (°)5.4016E-05
inclination uncertainty (°)5.5139E-06
eccentricity uncertainty 1.4446E-07
perihelion distance uncertainty (AU)3.6708E-07
Minimum Orbit Intersection Distances (in AU)
for orbit epoch: 2460200.5, reference: E2024-B63
Mercury2.06109
Venus1.77119
Earth1.48668
Mars0.94274
Jupiter2.44812
Saturn6.48424
Uranus15.8403
Neptune27.3243

Observations

277 total observations over interval: 2000 03 03.34846 – 2024 01 19.226394
These data are available for download (format description).

Date (UT) J2000 RA J2000 Dec Magn Location Ref
2000 03 03.34846 11 14 12.53 +04 30 04.5 20.6 V 691 – Steward Observatory, Kitt Peak-Spacewatch MPS 11372
2000 03 03.37057 11 14 11.26 +04 30 09.9 20.5 V 691 – Steward Observatory, Kitt Peak-Spacewatch MPS 11372
2000 03 03.39228 11 14 10.02 +04 30 15.7 20.7 V 691 – Steward Observatory, Kitt Peak-Spacewatch MPS 11372
2000 03 08.29069 11 09 36.34 +04 51 03.8 21.0 V 691 – Steward Observatory, Kitt Peak-Spacewatch MPS 11372
2000 03 08.29647 11 09 36.00 +04 51 05.4 20.8 V 691 – Steward Observatory, Kitt Peak-Spacewatch MPS 11372
2000 03 08.30237 11 09 35.64 +04 51 06.8 21.3 V 691 – Steward Observatory, Kitt Peak-Spacewatch MPS 11372
2000 03 10.42376 11 07 36.77 +05 00 07.6 21.1 V 691 – Steward Observatory, Kitt Peak-Spacewatch MPS 11372
2000 03 10.42958 11 07 36.45 +05 00 08.9 20.7 V 691 – Steward Observatory, Kitt Peak-Spacewatch MPS 11372
2000 03 10.43512 11 07 36.17 +05 00 10.7 20.6 V 691 – Steward Observatory, Kitt Peak-Spacewatch MPS 11372
2004 02 16.44476 10 49 42.16 +08 14 29.7 21.7 V 691 – Steward Observatory, Kitt Peak-Spacewatch MPS 239303
2004 02 16.50377 10 49 39.02 +08 14 42.7 21.6 V 691 – Steward Observatory, Kitt Peak-Spacewatch MPS 239303
2004 02 16.53145 10 49 37.54 +08 14 49.4 22.0 V 691 – Steward Observatory, Kitt Peak-Spacewatch MPS 239303
2006 10 02.47806 02 27 43.70 +19 09 33.4 20.7 V G96 – Mt. Lemmon Survey MPS 197970
2006 10 02.48280 02 27 43.52 +19 09 33.2 20.8 V G96 – Mt. Lemmon Survey MPS 197970
2006 10 02.48752 02 27 43.30 +19 09 32.6 21.0 V G96 – Mt. Lemmon Survey MPS 197970
2006 10 02.49223 02 27 43.16 +19 09 32.5 21.1 V G96 – Mt. Lemmon Survey MPS 197970
2006 10 15.27478 02 17 48.75 +18 47 11.5   691 – Steward Observatory, Kitt Peak-Spacewatch MPS 183189
2006 10 15.29213 02 17 47.81 +18 47 09.4   691 – Steward Observatory, Kitt Peak-Spacewatch MPS 183189
2006 10 15.30948 02 17 46.78 +18 47 07.3   691 – Steward Observatory, Kitt Peak-Spacewatch MPS 183189
2006 10 17.24916 02 16 01.50 +18 41 42.4 20.8 V 691 – Steward Observatory, Kitt Peak-Spacewatch MPS 183189
2006 10 17.26658 02 16 00.54 +18 41 39.1 21.0 V 691 – Steward Observatory, Kitt Peak-Spacewatch MPS 183189
2006 10 17.28400 02 15 59.52 +18 41 36.8 21.2 V 691 – Steward Observatory, Kitt Peak-Spacewatch MPS 183189
2006 10 19.26592 02 14 09.02 +18 35 35.3 20.6 V 691 – Steward Observatory, Kitt Peak-Spacewatch MPS 182713
2006 10 19.28331 02 14 07.99 +18 35 32.0 20.4 V 691 – Steward Observatory, Kitt Peak-Spacewatch MPS 182713
2006 10 19.30070 02 14 06.97 +18 35 28.9 20.8 V 691 – Steward Observatory, Kitt Peak-Spacewatch MPS 182713
2006 10 21.21659 02 12 18.10 +18 29 12.2 20.7 V 691 – Steward Observatory, Kitt Peak-Spacewatch MPS 183875
2006 10 21.23400 02 12 17.07 +18 29 08.6 20.5 V 691 – Steward Observatory, Kitt Peak-Spacewatch MPS 183875
2006 10 21.25141 02 12 16.01 +18 29 05.2 20.8 V 691 – Steward Observatory, Kitt Peak-Spacewatch MPS 183875
2006 10 23.25783 02 10 20.08 +18 22 04.8 20.6 V 691 – Steward Observatory, Kitt Peak-Spacewatch MPS 183875
2006 10 23.27520 02 10 19.06 +18 22 01.3 20.9 V 691 – Steward Observatory, Kitt Peak-Spacewatch MPS 183875
2006 10 23.29258 02 10 18.00 +18 21 57.6 20.8 V 691 – Steward Observatory, Kitt Peak-Spacewatch MPS 183875
2006 10 28.25576 02 05 28.01 +18 02 59.3 21.1 V 691 – Steward Observatory, Kitt Peak-Spacewatch MPS 185214
2006 10 28.27657 02 05 26.75 +18 02 54.2 20.5 V 691 – Steward Observatory, Kitt Peak-Spacewatch MPS 185214
2006 10 28.29740 02 05 25.50 +18 02 49.2 20.8 V 691 – Steward Observatory, Kitt Peak-Spacewatch MPS 185214
2006 10 31.20265 02 02 36.67 +17 50 51.2   691 – Steward Observatory, Kitt Peak-Spacewatch MPS 185214
2006 10 31.21999 02 02 35.62 +17 50 46.8   691 – Steward Observatory, Kitt Peak-Spacewatch MPS 185214
2006 10 31.23734 02 02 34.60 +17 50 42.3   691 – Steward Observatory, Kitt Peak-Spacewatch MPS 185214
2006 11 01.26347 02 01 35.46 +17 46 21.8 21.0 V 691 – Steward Observatory, Kitt Peak-Spacewatch MPS 185214
2006 11 01.28079 02 01 34.46 +17 46 17.5 20.8 V 691 – Steward Observatory, Kitt Peak-Spacewatch MPS 185214
2006 11 01.29811 02 01 33.42 +17 46 13.0 20.8 V 691 – Steward Observatory, Kitt Peak-Spacewatch MPS 185214
2008 02 02.23412 10 22 49.09 +11 58 46.2 20.9 V 691 – Steward Observatory, Kitt Peak-Spacewatch MPS 236123
2008 02 02.25174 10 22 48.22 +11 58 49.6 20.8 V 691 – Steward Observatory, Kitt Peak-Spacewatch MPS 236123
2008 02 02.26939 10 22 47.35 +11 58 53.7 20.7 V 691 – Steward Observatory, Kitt Peak-Spacewatch MPS 236123
2008 02 08.36819 10 17 35.19 +12 20 45.6 20.4 V G96 – Mt. Lemmon Survey MPS 236123
2008 02 08.37478 10 17 34.80 +12 20 47.0 20.9 V G96 – Mt. Lemmon Survey MPS 236123
2008 02 08.38132 10 17 34.40 +12 20 48.5 20.6 V G96 – Mt. Lemmon Survey MPS 236123
2008 02 08.38776 10 17 34.04 +12 20 49.9 20.7 V G96 – Mt. Lemmon Survey MPS 236123
2008 02 10.23039 10 15 53.73 +12 27 46.2 20.4 V 691 – Steward Observatory, Kitt Peak-Spacewatch MPS 237353
2008 02 10.24805 10 15 52.74 +12 27 50.5 20.4 V 691 – Steward Observatory, Kitt Peak-Spacewatch MPS 237353
2008 02 10.26571 10 15 51.68 +12 27 54.1 20.5 V 691 – Steward Observatory, Kitt Peak-Spacewatch MPS 237353
2008 02 13.16593 10 13 09.20 +12 38 58.6 20.7 V 691 – Steward Observatory, Kitt Peak-Spacewatch MPS 237353
2008 02 13.18358 10 13 08.14 +12 39 02.7 20.5 V 691 – Steward Observatory, Kitt Peak-Spacewatch MPS 237353
2008 02 13.20125 10 13 07.12 +12 39 06.8 20.3 V 691 – Steward Observatory, Kitt Peak-Spacewatch MPS 237353
2008 03 08.20815 09 50 54.06 +13 59 59.8 21.5 V G96 – Mt. Lemmon Survey MPS 241954
2008 03 08.21330 09 50 53.84 +14 00 01.2 20.8 V G96 – Mt. Lemmon Survey MPS 241954
2008 03 08.21845 09 50 53.55 +14 00 01.5 21.1 V G96 – Mt. Lemmon Survey MPS 241954
2008 03 08.22362 09 50 53.30 +14 00 02.2 20.8 V G96 – Mt. Lemmon Survey MPS 241954
2010 09 10.40329 01 56 51.21 +15 17 33.3 20.7 V G96 – Mt. Lemmon Survey MPS 347054
2010 09 10.41111 01 56 51.10 +15 17 33.6 20.5 V G96 – Mt. Lemmon Survey MPS 347054
2010 09 10.41743 01 56 50.96 +15 17 33.7 20.5 V G96 – Mt. Lemmon Survey MPS 347054
2010 09 10.42383 01 56 50.85 +15 17 34.4 20.7 V G96 – Mt. Lemmon Survey MPS 347054
2010 10 03.538583 01 43 19.706 +14 55 15.87 20.73 r F51 – Pan-STARRS 1, Haleakala MPS 365365
2010 10 03.549578 01 43 19.124 +14 55 14.14 20.78 r F51 – Pan-STARRS 1, Haleakala MPS 365365
2012 01 26.44714 09 47 13.48 +16 05 41.4 21.0 V G96 – Mt. Lemmon Survey MPS 410047
2012 01 26.45230 09 47 13.20 +16 05 42.7 21.1 V G96 – Mt. Lemmon Survey MPS 410047
2012 01 26.45757 09 47 12.94 +16 05 43.8 21.1 V G96 – Mt. Lemmon Survey MPS 410047
2012 01 26.46278 09 47 12.62 +16 05 44.7 20.7 V G96 – Mt. Lemmon Survey MPS 410047
2012 02 03.53892 09 39 47.543 +16 33 59.04 20.7 i F51 – Pan-STARRS 1, Haleakala MPS 411475
2012 02 03.55181 09 39 46.768 +16 34 01.47 20.9 i F51 – Pan-STARRS 1, Haleakala MPS 411475
2012 02 03.56613 09 39 45.912 +16 34 04.75 21.0 r F51 – Pan-STARRS 1, Haleakala MPS 411475
2012 02 03.58503 09 39 44.791 +16 34 08.60 21.0 r F51 – Pan-STARRS 1, Haleakala MPS 411475
2012 02 14.52077 09 28 54.870 +17 11 10.40 20.6 i F51 – Pan-STARRS 1, Haleakala MPS 412897
2012 02 14.53417 09 28 54.043 +17 11 12.94 20.5 i F51 – Pan-STARRS 1, Haleakala MPS 412897
2012 02 15.36003 09 28 05.405 +17 13 47.41 21.0 w F51 – Pan-STARRS 1, Haleakala MPS 412897
2012 02 15.37390 09 28 04.556 +17 13 49.98 21.0 w F51 – Pan-STARRS 1, Haleakala MPS 412897
2012 02 15.38781 09 28 03.702 +17 13 52.56 21.3 w F51 – Pan-STARRS 1, Haleakala MPS 412897
2014 09 19.41597 01 11 14.779 +10 44 46.66 20.7 w F51 – Pan-STARRS 1, Haleakala MPS 536127
2014 09 19.43835 01 11 13.736 +10 44 43.62 20.8 w F51 – Pan-STARRS 1, Haleakala MPS 536127
2014 09 19.44955 01 11 13.230 +10 44 42.05 20.9 w F51 – Pan-STARRS 1, Haleakala MPS 536127
2014 09 24.21332 01 07 30.47 +10 32 03.6 20.6 V 691 – Steward Observatory, Kitt Peak-Spacewatch MPS 536127
2014 09 24.23368 01 07 29.41 +10 32 00.1 20.6 V 691 – Steward Observatory, Kitt Peak-Spacewatch MPS 536127
2014 09 24.25403 01 07 28.39 +10 31 56.4 21.0 V 691 – Steward Observatory, Kitt Peak-Spacewatch MPS 536127
2014 09 29.52996 01 02 57.217 +10 14 37.55 20.7 w F51 – Pan-STARRS 1, Haleakala MPS 538580
